Погода в Рассухе

Россия / Брянская область     52°47′57″N   32°57′18″E
темп.,
°C
ветер,
м/с
пор.,
м/с
влажн.,
%
обл.,
%
осадки,
мм/ч
давл.,
гПа
погр.,
м
10 мая, пн
пн1000:00+4сз47774 0.0 1025103
03:00+3ссз35795 0.0 102667
06:00+3ссз34783 0.0 102762
09:00+10с34580 0.0 1027389
12:00+13с45450 0.0 10271416
15:00+14ссв56430 0.0 10261552
18:00+14ссв47570 0.0 1024700
21:00+8ссв45730 0.0 102565
11 мая, вт
вт1100:00+6ссв36790 0.0 102586
03:00+5ссв410775 0.0 1026168
06:00+6ссв512785 0.0 1025250
09:00+11ссв69705 0.0 1024383
12:00+16св68631 0.0 1022733
15:00+19св79615 0.0 10211186
18:00+18всв6107310 0.4 1021860
21:00+11вюв599483 0.7 1023386
12 мая, ср
ср1200:00+7в49960 0.0 1024209
03:00+6вюв5119514 0.0 1024469
06:00+5в38935 0.0 1025206
09:00+10в5777100 0.0 1024582
12:00+14в566299 0.0 10221419
15:00+10св5577100 1.0 1020638
18:00+8юз2395100 4.7 1016243
21:00+7ююв5995100 13.5 1015539
13 мая, чт
чт1300:00+7вюв3109769 1.6 1015502
03:00+5вюв499959 1.6 1015275
06:00+5вюв489998 0.0 1015317
09:00+8юв5790100 0.0 1015578
12:00+12ююв6874100 0.0 10151073
15:00+14ююв6865100 0.1 10141525
18:00+15ююв5768100 0.0 10141088
21:00+10юв35840 0.0 101459
14 мая, пт
пт1400:00+8вюв359010 0.0 101465
03:00+8вюв3694100 0.0 1014107
06:00+10вюв379654 0.0 1013156
09:00+11в4796100 0.4 1013225
12:00+17вюв588063 0.0 1011835
15:00+20ю687141 2.1 10101204
18:00+18ю478184 1.6 1010504
21:00+15ю3591100 1.8 101072